BEIDOU-3 M16 (C35)

Last updated on Mon Oct 20 2025 00:03:25 GMT+0000 (Coordinated Universal Time)

1 43647U 18078A 25291.93004258 -.00000063 00000+0 00000+0 0 9996 2 43647 54.3105 308.4373 0006103 18.2095 341.8483 1.86232377 47660
UTC large
Height (km)
Speed (km/s)
/
Latitude / Longitude
Inclination (degrees)
Orbital Period (minutes)
Azimuth
Elevation
Range (km)
Doppler Factor

Next 0 passes for location: London (51.5072 / 0.1276)

Sorry there are no passes over London.